Location: Miss�
(46.9484°N, 0.1922°W)
Time: 03:29:55
(UTC+00:00)

Gbstr 26 Del rocket - Pass Details

Date: 02 March 2021
Orbit: 492 x 1264 km, 51.8° (Epoch: 16 April)

Event Time Altitude Azimuth Distance (km) Brightness Sun altitude
Rises 19:57:44 0° 281° (W) 2,870 8.0 -22.8°
Reaches altitude 10° 19:59:54 10° 287° (WNW) 2,057 6.8 -23.1°
Maximum altitude 20:04:30 50° 3° (N) 954 4.0 -23.9°
Enters shadow 20:05:41 42° 42° (NE) 1,098 4.0 -24.1°
